Time,TemperatureF,DewpointF,PressureIn,WindDirection,WindDirectionDegrees,WindSpeedMPH,WindSpeedGustMPH,Humidity,HourlyPrecipIn,Conditions,Clouds,dailyrainin,SolarRadiationWatts/m^2,SoftwareType,DateUTC
2013-03-27 00:00:00,40.4,30.7,30.01,WNW,294,4.0,6.0,68,0.00,,,0.00,0,Wunderground v.1.15,2013-03-27 04:00:00,
2013-03-27 00:02:00,40.4,30.3,30.02,NNW,332,5.0,9.0,67,0.00,,,0.00,0,Wunderground v.1.15,2013-03-27 04:02:00,
2013-03-27 00:08:00,40.2,30.8,30.02,NNW,340,6.0,9.0,69,0.00,,,0.00,0,Wunderground v.1.15,2013-03-27 04:08:00,
2013-03-27 00:12:00,40.1,30.7,30.02,WNW,294,6.0,8.0,69,0.00,,,0.00,0,Wunderground v.1.15,2013-03-27 04:12:00,
2013-03-27 00:17:00,39.9,31.3,30.02,NNW,329,6.0,8.0,71,0.00,,,0.00,0,Wunderground v.1.15,2013-03-27 04:17:00,
2013-03-27 00:22:00,39.8,31.2,30.02,NW,310,6.0,9.0,71,0.00,,,0.00,0,Wunderground v.1.15,2013-03-27 04:22:00,
2013-03-27 00:27:00,39.8,31.5,30.02,WNW,290,6.0,9.0,72,0.00,,,0.00,0,Wunderground v.1.15,2013-03-27 04:27:00,
2013-03-27 00:33:00,39.6,31.7,30.02,NW,314,6.0,7.0,73,0.00,,,0.00,0,Wunderground v.1.15,2013-03-27 04:33:00,
2013-03-27 00:38:00,39.5,31.9,30.02,NW,313,6.0,7.0,74,0.00,,,0.00,0,Wunderground v.1.15,2013-03-27 04:38:00,
2013-03-27 00:44:00,39.5,31.9,30.02,North,9,7.0,9.0,74,0.00,,,0.00,0,Wunderground v.1.15,2013-03-27 04:44:00,
2013-03-27 00:50:00,39.4,31.8,30.03,WNW,292,8.0,8.0,74,0.00,,,0.00,0,Wunderground v.1.15,2013-03-27 04:50:00,
2013-03-27 00:56:00,39.1,32.2,30.03,West,280,8.0,9.0,76,0.00,,,0.00,0,Wunderground v.1.15,2013-03-27 04:56:00,
2013-03-27 01:02:00,38.7,32.4,30.03,NW,325,9.0,15.0,78,0.00,,,0.00,0,Wunderground v.1.15,2013-03-27 05:02:00,
2013-03-27 01:08:00,38.4,33.1,30.03,WNW,298,8.0,15.0,81,0.00,,,0.00,0,Wunderground v.1.15,2013-03-27 05:08:00,
2013-03-27 01:14:00,38.2,32.6,30.02,WNW,284,6.0,8.0,80,0.00,,,0.00,0,Wunderground v.1.15,2013-03-27 05:14:00,
2013-03-27 01:19:00,38.0,32.7,30.02,WNW,285,4.0,8.0,81,0.00,,,0.00,0,Wunderground v.1.15,2013-03-27 05:19:00,
2013-03-27 01:25:00,38.0,33.0,30.02,WNW,285,2.0,3.0,82,0.00,,,0.00,0,Wunderground v.1.15,2013-03-27 05:25:00,
2013-03-27 01:31:00,38.0,33.0,30.02,WNW,291,1.0,2.0,82,0.00,,,0.00,0,Wunderground v.1.15,2013-03-27 05:31:00,
2013-03-27 01:37:00,38.0,33.0,30.02,WNW,284,1.0,4.0,82,0.00,,,0.00,0,Wunderground v.1.15,2013-03-27 05:37:00,
2013-03-27 01:43:00,38.0,33.0,30.02,NW,315,2.0,2.0,82,0.00,,,0.00,0,Wunderground v.1.15,2013-03-27 05:43:00,
2013-03-27 01:49:00,38.0,33.3,30.02,NW,315,1.0,2.0,83,0.00,,,0.00,0,Wunderground v.1.15,2013-03-27 05:49:00,
2013-03-27 01:55:00,38.0,33.0,30.02,WNW,296,1.0,2.0,82,0.00,,,0.00,0,Wunderground v.1.15,2013-03-27 05:55:00,
2013-03-27 02:00:00,38.0,33.0,30.02,WNW,296,1.0,1.0,82,0.00,,,0.00,0,Wunderground v.1.15,2013-03-27 06:00:00,
2013-03-27 02:06:00,37.9,33.2,30.02,WNW,296,1.0,1.0,83,0.00,,,0.00,0,Wunderground v.1.15,2013-03-27 06:06:00,
2013-03-27 02:12:00,37.9,33.2,30.02,WNW,296,1.0,2.0,83,0.00,,,0.00,0,Wunderground v.1.15,2013-03-27 06:12:00,
2013-03-27 02:17:00,37.9,33.2,30.02,WNW,296,1.0,2.0,83,0.00,,,0.00,0,Wunderground v.1.15,2013-03-27 06:17:00,
2013-03-27 02:23:00,37.8,33.1,30.02,WNW,296,2.0,2.0,83,0.00,,,0.00,0,Wunderground v.1.15,2013-03-27 06:23:00,
2013-03-27 02:29:00,37.9,32.9,30.02,WNW,296,1.0,2.0,82,0.00,,,0.00,0,Wunderground v.1.15,2013-03-27 06:29:00,
2013-03-27 02:35:00,37.9,32.9,30.02,NNW,333,1.0,3.0,82,0.00,,,0.00,0,Wunderground v.1.15,2013-03-27 06:35:00,
2013-03-27 02:40:00,37.9,32.6,30.02,NNW,335,1.0,1.0,81,0.00,,,0.00,0,Wunderground v.1.15,2013-03-27 06:40:00,
2013-03-27 02:46:00,38.0,33.0,30.02,East,96,1.0,2.0,82,0.00,,,0.00,0,Wunderground v.1.15,2013-03-27 06:46:00,
2013-03-27 02:52:00,38.1,32.5,30.01,West,273,1.0,4.0,80,0.00,,,0.00,0,Wunderground v.1.15,2013-03-27 06:52:00,
2013-03-27 02:58:00,38.1,32.5,30.01,WNW,286,1.0,4.0,80,0.00,,,0.00,0,Wunderground v.1.15,2013-03-27 06:58:00,
2013-03-27 03:03:00,38.1,32.8,30.01,WSW,240,1.0,2.0,81,0.00,,,0.00,0,Wunderground v.1.15,2013-03-27 07:03:00,
2013-03-27 03:09:00,38.0,32.7,30.01,WSW,240,1.0,2.0,81,0.00,,,0.00,0,Wunderground v.1.15,2013-03-27 07:09:00,
2013-03-27 03:15:00,38.0,32.4,30.01,SE,129,1.0,4.0,80,0.00,,,0.00,0,Wunderground v.1.15,2013-03-27 07:15:00,
2013-03-27 03:20:00,37.9,32.3,30.01,WSW,246,1.0,1.0,80,0.00,,,0.00,0,Wunderground v.1.15,2013-03-27 07:20:00,
2013-03-27 03:26:00,37.8,32.2,30.01,West,275,1.0,2.0,80,0.00,,,0.00,0,Wunderground v.1.15,2013-03-27 07:26:00,
2013-03-27 03:31:00,37.7,31.8,30.01,NW,323,2.0,2.0,79,0.00,,,0.00,0,Wunderground v.1.15,2013-03-27 07:31:00,
2013-03-27 03:37:00,37.7,31.5,30.01,WNW,299,2.0,2.0,78,0.00,,,0.00,0,Wunderground v.1.15,2013-03-27 07:37:00,
2013-03-27 03:42:00,37.8,31.2,30.01,WNW,296,2.0,2.0,77,0.00,,,0.00,0,Wunderground v.1.15,2013-03-27 07:42:00,
2013-03-27 03:48:00,37.7,31.1,30.01,WNW,292,2.0,4.0,77,0.00,,,0.00,0,Wunderground v.1.15,2013-03-27 07:48:00,
2013-03-27 03:54:00,37.6,30.7,30.01,WNW,292,2.0,2.0,76,0.00,,,0.00,0,Wunderground v.1.15,2013-03-27 07:54:00,
2013-03-27 03:59:00,37.6,30.7,30.01,West,275,2.0,3.0,76,0.00,,,0.00,0,Wunderground v.1.15,2013-03-27 07:59:00,
2013-03-27 04:05:00,37.7,30.5,30.01,NW,323,4.0,6.0,75,0.00,,,0.00,0,Wunderground v.1.15,2013-03-27 08:05:00,
2013-03-27 04:10:00,37.7,30.5,30.01,NW,311,5.0,5.0,75,0.00,,,0.00,0,Wunderground v.1.15,2013-03-27 08:10:00,
2013-03-27 04:16:00,37.8,30.9,30.01,WNW,299,5.0,7.0,76,0.00,,,0.00,0,Wunderground v.1.15,2013-03-27 08:16:00,
2013-03-27 04:22:00,37.9,31.0,30.01,NW,324,6.0,6.0,76,0.00,,,0.00,0,Wunderground v.1.15,2013-03-27 08:22:00,
2013-03-27 04:28:00,37.9,31.0,30.01,WNW,288,6.0,6.0,76,0.00,,,0.00,0,Wunderground v.1.15,2013-03-27 08:28:00,
2013-03-27 04:33:00,37.9,31.0,30.01,WNW,286,6.0,7.0,76,0.00,,,0.00,0,Wunderground v.1.15,2013-03-27 08:33:00,
2013-03-27 04:39:00,37.9,31.0,30.00,NW,320,6.0,7.0,76,0.00,,,0.00,0,Wunderground v.1.15,2013-03-27 08:39:00,
2013-03-27 04:45:00,37.8,30.9,30.00,NW,315,5.0,6.0,76,0.00,,,0.00,0,Wunderground v.1.15,2013-03-27 08:45:00,
2013-03-27 04:50:00,37.7,30.8,30.00,West,277,3.0,5.0,76,0.00,,,0.00,0,Wunderground v.1.15,2013-03-27 08:50:00,
2013-03-27 04:55:00,37.7,30.8,30.00,West,279,2.0,5.0,76,0.00,,,0.00,0,Wunderground v.1.15,2013-03-27 08:55:00,
2013-03-27 05:01:00,37.7,30.8,30.00,WNW,287,2.0,2.0,76,0.00,,,0.00,0,Wunderground v.1.15,2013-03-27 09:01:00,
2013-03-27 05:07:00,37.6,30.7,30.01,WNW,298,2.0,4.0,76,0.00,,,0.00,0,Wunderground v.1.15,2013-03-27 09:07:00,
2013-03-27 05:13:00,37.5,30.6,30.01,WNW,292,3.0,3.0,76,0.00,,,0.00,0,Wunderground v.1.15,2013-03-27 09:13:00,
2013-03-27 05:18:00,37.4,30.5,30.01,WNW,292,2.0,3.0,76,0.00,,,0.00,0,Wunderground v.1.15,2013-03-27 09:18:00,
2013-03-27 05:23:00,37.3,30.4,30.01,WNW,291,1.0,2.0,76,0.00,,,0.00,0,Wunderground v.1.15,2013-03-27 09:23:00,
2013-03-27 05:28:00,37.2,30.3,30.01,WNW,284,1.0,4.0,76,0.00,,,0.00,0,Wunderground v.1.15,2013-03-27 09:28:00,
2013-03-27 05:34:00,37.1,30.2,30.01,WNW,300,2.0,5.0,76,0.00,,,0.00,0,Wunderground v.1.15,2013-03-27 09:34:00,
2013-03-27 05:39:00,36.8,30.3,30.01,WNW,286,2.0,5.0,77,0.00,,,0.00,0,Wunderground v.1.15,2013-03-27 09:39:00,
2013-03-27 05:45:00,36.5,30.0,30.01,WNW,292,3.0,4.0,77,0.00,,,0.00,0,Wunderground v.1.15,2013-03-27 09:45:00,
2013-03-27 05:50:00,36.4,29.9,30.02,West,275,3.0,3.0,77,0.00,,,0.00,0,Wunderground v.1.15,2013-03-27 09:50:00,
2013-03-27 05:55:00,36.2,29.7,30.02,West,281,3.0,6.0,77,0.00,,,0.00,0,Wunderground v.1.15,2013-03-27 09:55:00,
2013-03-27 06:00:00,36.1,29.9,30.02,WNW,291,3.0,3.0,78,0.00,,,0.00,0,Wunderground v.1.15,2013-03-27 10:00:00,
2013-03-27 06:06:00,36.0,29.8,30.02,West,269,3.0,5.0,78,0.00,,,0.00,0,Wunderground v.1.15,2013-03-27 10:06:00,
2013-03-27 06:11:00,36.0,29.5,30.02,NW,304,3.0,6.0,77,0.00,,,0.00,0,Wunderground v.1.15,2013-03-27 10:11:00,
2013-03-27 06:17:00,35.9,29.4,30.02,WNW,290,4.0,7.0,77,0.00,,,0.00,0,Wunderground v.1.15,2013-03-27 10:17:00,
2013-03-27 06:23:00,35.9,29.4,30.02,WNW,297,5.0,5.0,77,0.00,,,0.00,0,Wunderground v.1.15,2013-03-27 10:23:00,
2013-03-27 06:29:00,36.0,29.2,30.03,NW,309,4.0,5.0,76,0.00,,,0.00,0,Wunderground v.1.15,2013-03-27 10:29:00,
2013-03-27 06:35:00,36.1,28.9,30.03,WNW,296,4.0,7.0,75,0.00,,,0.00,0,Wunderground v.1.15,2013-03-27 10:35:00,
2013-03-27 06:41:00,35.9,28.4,30.03,NW,312,4.0,5.0,74,0.00,,,0.00,0,Wunderground v.1.15,2013-03-27 10:41:00,
2013-03-27 06:46:00,35.8,28.3,30.03,WNW,296,5.0,5.0,74,0.00,,,0.00,0,Wunderground v.1.15,2013-03-27 10:46:00,
2013-03-27 06:51:00,35.9,28.1,30.03,NW,305,4.0,5.0,73,0.00,,,0.00,0,Wunderground v.1.15,2013-03-27 10:51:00,
2013-03-27 06:57:00,35.9,27.7,30.04,WNW,295,4.0,6.0,72,0.00,,,0.00,5,Wunderground v.1.15,2013-03-27 10:57:00,
2013-03-27 07:02:00,35.9,27.7,30.04,WNW,296,4.0,5.0,72,0.00,,,0.00,7,Wunderground v.1.15,2013-03-27 11:02:00,
2013-03-27 07:08:00,35.9,27.4,30.04,West,279,3.0,6.0,71,0.00,,,0.00,11,Wunderground v.1.15,2013-03-27 11:08:00,
2013-03-27 07:14:00,36.0,27.5,30.04,WNW,302,4.0,4.0,71,0.00,,,0.00,12,Wunderground v.1.15,2013-03-27 11:14:00,
2013-03-27 07:19:00,36.0,27.5,30.04,WNW,291,3.0,5.0,71,0.00,,,0.00,16,Wunderground v.1.15,2013-03-27 11:19:00,
2013-03-27 07:25:00,36.0,27.2,30.04,NW,306,4.0,7.0,70,0.00,,,0.00,19,Wunderground v.1.15,2013-03-27 11:25:00,
2013-03-27 07:30:00,36.1,27.3,30.05,WNW,294,3.0,3.0,70,0.00,,,0.00,23,Wunderground v.1.15,2013-03-27 11:30:00,
2013-03-27 07:36:00,36.1,27.3,30.05,NW,308,3.0,6.0,70,0.00,,,0.00,26,Wunderground v.1.15,2013-03-27 11:36:00,
2013-03-27 07:41:00,36.1,27.3,30.05,WNW,289,3.0,6.0,70,0.00,,,0.00,28,Wunderground v.1.15,2013-03-27 11:41:00,
2013-03-27 07:47:00,36.2,27.0,30.05,WNW,294,3.0,6.0,69,0.00,,,0.00,28,Wunderground v.1.15,2013-03-27 11:47:00,
2013-03-27 07:53:00,36.2,27.0,30.05,West,267,3.0,4.0,69,0.00,,,0.00,32,Wunderground v.1.15,2013-03-27 11:53:00,
2013-03-27 07:59:00,36.4,27.2,30.05,WNW,289,4.0,5.0,69,0.00,,,0.00,33,Wunderground v.1.15,2013-03-27 11:59:00,
2013-03-27 08:05:00,36.5,27.3,30.06,WNW,298,3.0,4.0,69,0.00,,,0.00,42,Wunderground v.1.15,2013-03-27 12:05:00,
2013-03-27 08:11:00,36.8,27.6,30.06,West,269,3.0,3.0,69,0.00,,,0.00,79,Wunderground v.1.15,2013-03-27 12:11:00,
2013-03-27 08:17:00,36.9,27.3,30.06,WNW,298,3.0,7.0,68,0.00,,,0.00,49,Wunderground v.1.15,2013-03-27 12:17:00,
2013-03-27 08:22:00,37.0,27.4,30.06,WNW,284,4.0,7.0,68,0.00,,,0.00,58,Wunderground v.1.15,2013-03-27 12:22:00,
2013-03-27 08:28:00,37.3,27.7,30.06,NNW,327,5.0,7.0,68,0.00,,,0.00,97,Wunderground v.1.15,2013-03-27 12:28:00,
2013-03-27 08:34:00,37.5,27.5,30.06,West,273,5.0,10.0,67,0.00,,,0.00,63,Wunderground v.1.15,2013-03-27 12:34:00,
2013-03-27 08:39:00,37.6,27.6,30.06,NNW,338,5.0,10.0,67,0.00,,,0.00,42,Wunderground v.1.15,2013-03-27 12:39:00,
2013-03-27 08:44:00,37.7,27.4,30.06,WNW,290,6.0,7.0,66,0.00,,,0.00,44,Wunderground v.1.15,2013-03-27 12:44:00,
2013-03-27 08:50:00,37.9,27.2,30.06,WNW,289,7.0,7.0,65,0.00,,,0.00,49,Wunderground v.1.15,2013-03-27 12:50:00,
2013-03-27 08:56:00,38.2,27.5,30.06,WNW,297,6.0,8.0,65,0.00,,,0.00,51,Wunderground v.1.15,2013-03-27 12:56:00,
2013-03-27 09:01:00,38.5,27.4,30.06,WNW,283,6.0,6.0,64,0.00,,,0.00,56,Wunderground v.1.15,2013-03-27 13:01:00,
2013-03-27 09:07:00,38.7,26.8,30.06,NNW,331,6.0,11.0,62,0.00,,,0.00,60,Wunderground v.1.15,2013-03-27 13:07:00,
2013-03-27 09:12:00,38.6,26.7,30.07,NNW,345,8.0,14.0,62,0.00,,,0.00,387,Wunderground v.1.15,2013-03-27 13:12:00,
2013-03-27 09:18:00,38.8,26.9,30.07,WNW,287,8.0,14.0,62,0.00,,,0.00,390,Wunderground v.1.15,2013-03-27 13:18:00,
2013-03-27 09:23:00,39.2,27.3,30.07,NNW,327,7.0,11.0,62,0.00,,,0.00,432,Wunderground v.1.15,2013-03-27 13:23:00,
2013-03-27 09:28:00,39.6,27.6,30.07,West,281,7.0,11.0,62,0.00,,,0.00,462,Wunderground v.1.15,2013-03-27 13:28:00,
2013-03-27 09:34:00,39.5,26.8,30.07,West,264,7.0,10.0,60,0.00,,,0.00,425,Wunderground v.1.15,2013-03-27 13:34:00,
2013-03-27 09:40:00,39.7,26.9,30.07,West,271,7.0,11.0,60,0.00,,,0.00,445,Wunderground v.1.15,2013-03-27 13:40:00,
2013-03-27 09:46:00,39.5,26.3,30.07,West,269,8.0,14.0,59,0.00,,,0.00,109,Wunderground v.1.15,2013-03-27 13:46:00,
2013-03-27 09:52:00,40.0,26.8,30.07,West,273,9.0,9.0,59,0.00,,,0.00,670,Wunderground v.1.15,2013-03-27 13:52:00,
2013-03-27 09:58:00,40.6,27.4,30.07,NNW,327,8.0,11.0,59,0.00,,,0.00,550,Wunderground v.1.15,2013-03-27 13:58:00,
2013-03-27 10:04:00,40.9,26.8,30.07,NNW,338,8.0,9.0,57,0.00,,,0.00,466,Wunderground v.1.15,2013-03-27 14:04:00,
2013-03-27 10:10:00,40.7,27.5,30.07,WNW,300,7.0,7.0,59,0.00,,,0.00,473,Wunderground v.1.15,2013-03-27 14:10:00,
2013-03-27 10:16:00,40.4,26.4,30.07,NNW,333,8.0,13.0,57,0.00,,,0.00,299,Wunderground v.1.15,2013-03-27 14:16:00,
2013-03-27 10:22:00,40.5,26.9,30.07,West,269,7.0,8.0,58,0.00,,,0.00,302,Wunderground v.1.15,2013-03-27 14:22:00,
2013-03-27 10:27:00,40.5,26.9,30.07,WNW,284,6.0,8.0,58,0.00,,,0.00,313,Wunderground v.1.15,2013-03-27 14:27:00,
2013-03-27 10:32:00,40.4,26.8,30.07,NW,317,7.0,10.0,58,0.00,,,0.00,281,Wunderground v.1.15,2013-03-27 14:32:00,
2013-03-27 10:37:00,40.4,26.8,30.07,WNW,283,8.0,10.0,58,0.00,,,0.00,276,Wunderground v.1.15,2013-03-27 14:37:00,
2013-03-27 10:43:00,40.4,26.4,30.07,NW,325,8.0,9.0,57,0.00,,,0.00,202,Wunderground v.1.15,2013-03-27 14:43:00,
2013-03-27 10:49:00,40.7,27.1,30.07,NNW,336,7.0,11.0,58,0.00,,,0.00,325,Wunderground v.1.15,2013-03-27 14:49:00,
2013-03-27 10:54:00,41.1,26.6,30.07,NNW,347,8.0,11.0,56,0.00,,,0.00,578,Wunderground v.1.15,2013-03-27 14:54:00,
2013-03-27 10:59:00,41.4,27.3,30.06,NNW,338,7.0,11.0,57,0.00,,,0.00,828,Wunderground v.1.15,2013-03-27 14:59:00,
2013-03-27 11:05:00,42.4,27.8,30.06,NW,311,7.0,12.0,56,0.00,,,0.00,784,Wunderground v.1.15,2013-03-27 15:05:00,
2013-03-27 11:11:00,43.1,27.6,30.06,West,259,9.0,9.0,54,0.00,,,0.00,833,Wunderground v.1.15,2013-03-27 15:11:00,
2013-03-27 11:16:00,42.8,27.7,30.06,WNW,298,8.0,10.0,55,0.00,,,0.00,172,Wunderground v.1.15,2013-03-27 15:16:00,
2013-03-27 11:21:00,42.9,26.9,30.06,WNW,300,7.0,7.0,53,0.00,,,0.00,301,Wunderground v.1.15,2013-03-27 15:21:00,
2013-03-27 11:27:00,42.9,26.9,30.06,WNW,300,8.0,15.0,53,0.00,,,0.00,301,Wunderground v.1.15,2013-03-27 15:27:00,
2013-03-27 11:32:00,43.5,27.9,30.06,WNW,300,7.0,14.0,54,0.00,,,0.00,1090,Wunderground v.1.15,2013-03-27 15:32:00,
2013-03-27 11:38:00,43.1,26.7,30.06,North,350,10.0,14.0,52,0.00,,,0.00,295,Wunderground v.1.15,2013-03-27 15:38:00,
2013-03-27 11:44:00,42.7,27.2,30.06,WNW,292,12.0,14.0,54,0.00,,,0.00,327,Wunderground v.1.15,2013-03-27 15:44:00,
2013-03-27 11:49:00,43.7,27.7,30.06,WNW,299,9.0,15.0,53,0.00,,,0.00,946,Wunderground v.1.15,2013-03-27 15:49:00,
2013-03-27 11:55:00,44.2,27.7,30.06,NW,304,9.0,10.0,52,0.00,,,0.00,942,Wunderground v.1.15,2013-03-27 15:55:00,
2013-03-27 12:00:00,44.7,27.7,30.06,NW,314,8.0,8.0,51,0.00,,,0.00,1150,Wunderground v.1.15,2013-03-27 16:00:00,
2013-03-27 12:06:00,44.5,27.5,30.06,NW,312,9.0,18.0,51,0.00,,,0.00,322,Wunderground v.1.15,2013-03-27 16:06:00,
2013-03-27 12:12:00,43.1,27.1,30.06,West,275,11.0,11.0,53,0.00,,,0.00,304,Wunderground v.1.15,2013-03-27 16:12:00,
2013-03-27 12:18:00,43.1,28.9,30.06,West,276,10.0,12.0,57,0.00,,,0.00,454,Wunderground v.1.15,2013-03-27 16:18:00,
2013-03-27 12:23:00,42.9,29.5,30.06,NW,321,10.0,14.0,59,0.00,,,0.00,496,Wunderground v.1.15,2013-03-27 16:23:00,
2013-03-27 12:29:00,42.4,29.1,30.07,NW,307,10.0,14.0,59,0.00,,,0.00,380,Wunderground v.1.15,2013-03-27 16:29:00,
2013-03-27 12:35:00,41.9,29.8,30.06,WNW,299,11.0,11.0,62,0.00,,,0.00,424,Wunderground v.1.15,2013-03-27 16:35:00,
2013-03-27 12:41:00,41.9,30.2,30.06,WNW,294,9.0,16.0,63,0.00,,,0.00,429,Wunderground v.1.15,2013-03-27 16:41:00,
2013-03-27 12:47:00,42.1,30.4,30.06,NNW,348,9.0,16.0,63,0.00,,,0.00,401,Wunderground v.1.15,2013-03-27 16:47:00,
2013-03-27 12:52:00,42.6,29.7,30.06,NW,319,8.0,15.0,60,0.00,,,0.00,972,Wunderground v.1.15,2013-03-27 16:52:00,
2013-03-27 12:58:00,43.4,29.6,30.06,NW,304,8.0,15.0,58,0.00,,,0.00,369,Wunderground v.1.15,2013-03-27 16:58:00,
2013-03-27 13:03:00,44.0,30.2,30.06,West,277,8.0,11.0,58,0.00,,,0.00,932,Wunderground v.1.15,2013-03-27 17:03:00,
2013-03-27 13:09:00,44.5,30.2,30.06,NW,307,7.0,11.0,57,0.00,,,0.00,1021,Wunderground v.1.15,2013-03-27 17:09:00,
2013-03-27 13:14:00,44.4,29.7,30.06,WSW,257,8.0,13.0,56,0.00,,,0.00,271,Wunderground v.1.15,2013-03-27 17:14:00,
2013-03-27 13:20:00,43.6,29.4,30.06,WNW,298,8.0,8.0,57,0.00,,,0.00,373,Wunderground v.1.15,2013-03-27 17:20:00,
2013-03-27 13:25:00,44.1,29.8,30.06,NW,325,7.0,10.0,57,0.00,,,0.00,1190,Wunderground v.1.15,2013-03-27 17:25:00,
2013-03-27 13:31:00,44.6,29.9,30.05,NW,320,7.0,8.0,56,0.00,,,0.00,432,Wunderground v.1.15,2013-03-27 17:31:00,
2013-03-27 13:36:00,45.3,30.1,30.05,West,268,8.0,14.0,55,0.00,,,0.00,1079,Wunderground v.1.15,2013-03-27 17:36:00,
2013-03-27 13:41:00,45.8,30.1,30.05,West,267,8.0,12.0,54,0.00,,,0.00,1144,Wunderground v.1.15,2013-03-27 17:41:00,
2013-03-27 13:47:00,45.2,28.6,30.05,NW,312,8.0,12.0,52,0.00,,,0.00,436,Wunderground v.1.15,2013-03-27 17:47:00,
2013-03-27 13:52:00,45.9,28.8,30.04,WNW,302,7.0,14.0,51,0.00,,,0.00,1114,Wunderground v.1.15,2013-03-27 17:52:00,
2013-03-27 13:57:00,46.0,28.9,30.04,West,281,7.0,14.0,51,0.00,,,0.00,352,Wunderground v.1.15,2013-03-27 17:57:00,
2013-03-27 14:03:00,46.1,28.5,30.04,WNW,287,7.0,10.0,50,0.00,,,0.00,837,Wunderground v.1.15,2013-03-27 18:03:00,
2013-03-27 14:09:00,46.2,28.1,30.04,NNW,329,7.0,12.0,49,0.00,,,0.00,276,Wunderground v.1.15,2013-03-27 18:09:00,
2013-03-27 14:15:00,47.0,28.8,30.04,WNW,294,8.0,11.0,49,0.00,,,0.00,904,Wunderground v.1.15,2013-03-27 18:15:00,
2013-03-27 14:20:00,47.1,28.4,30.03,West,273,7.0,7.0,48,0.00,,,0.00,895,Wunderground v.1.15,2013-03-27 18:20:00,
2013-03-27 14:25:00,47.4,28.2,30.03,WNW,295,7.0,8.0,47,0.00,,,0.00,919,Wunderground v.1.15,2013-03-27 18:25:00,
2013-03-27 14:31:00,46.5,28.3,30.03,West,276,7.0,14.0,49,0.00,,,0.00,158,Wunderground v.1.15,2013-03-27 18:31:00,
2013-03-27 14:36:00,44.2,30.3,30.04,NW,324,11.0,15.0,58,0.00,,,0.00,204,Wunderground v.1.15,2013-03-27 18:36:00,
2013-03-27 14:42:00,42.9,29.5,30.04,NNW,328,13.0,14.0,59,0.00,,,0.00,411,Wunderground v.1.15,2013-03-27 18:42:00,
2013-03-27 14:49:00,44.0,30.2,30.04,NW,321,10.0,14.0,58,0.00,,,0.00,684,Wunderground v.1.15,2013-03-27 18:49:00,
2013-03-27 14:54:00,44.7,30.0,30.04,NNW,340,7.0,9.0,56,0.00,,,0.00,663,Wunderground v.1.15,2013-03-27 18:54:00,
2013-03-27 15:00:00,45.5,29.3,30.04,NW,318,7.0,9.0,53,0.00,,,0.00,338,Wunderground v.1.15,2013-03-27 19:00:00,
2013-03-27 15:06:00,45.3,28.2,30.03,North,355,7.0,11.0,51,0.00,,,0.00,396,Wunderground v.1.15,2013-03-27 19:06:00,
2013-03-27 15:11:00,45.4,28.3,30.03,NNW,329,5.0,6.0,51,0.00,,,0.00,172,Wunderground v.1.15,2013-03-27 19:11:00,
2013-03-27 15:16:00,45.5,27.9,30.03,WNW,302,4.0,8.0,50,0.00,,,0.00,135,Wunderground v.1.15,2013-03-27 19:16:00,
2013-03-27 15:22:00,45.4,28.8,30.03,WNW,288,8.0,9.0,52,0.00,,,0.00,413,Wunderground v.1.15,2013-03-27 19:22:00,
2013-03-27 15:28:00,46.1,29.4,30.03,West,281,8.0,11.0,52,0.00,,,0.00,677,Wunderground v.1.15,2013-03-27 19:28:00,
2013-03-27 15:34:00,46.4,26.7,30.02,West,277,8.0,9.0,46,0.00,,,0.00,585,Wunderground v.1.15,2013-03-27 19:34:00,
2013-03-27 15:39:00,46.7,26.5,30.03,WNW,302,8.0,13.0,45,0.00,,,0.00,123,Wunderground v.1.15,2013-03-27 19:39:00,
2013-03-27 15:45:00,46.3,26.1,30.03,NW,323,8.0,12.0,45,0.00,,,0.00,675,Wunderground v.1.15,2013-03-27 19:45:00,
2013-03-27 15:51:00,47.1,26.8,30.02,NNW,335,9.0,10.0,45,0.00,,,0.00,633,Wunderground v.1.15,2013-03-27 19:51:00,
2013-03-27 15:57:00,46.7,26.5,30.03,NW,322,10.0,15.0,45,0.00,,,0.00,274,Wunderground v.1.15,2013-03-27 19:57:00,
2013-03-27 16:02:00,46.4,26.7,30.03,WNW,286,10.0,10.0,46,0.00,,,0.00,631,Wunderground v.1.15,2013-03-27 20:02:00,
2013-03-27 16:07:00,46.7,27.0,30.03,WNW,294,8.0,10.0,46,0.00,,,0.00,636,Wunderground v.1.15,2013-03-27 20:07:00,
2013-03-27 16:13:00,47.3,25.3,30.02,NNW,328,7.0,11.0,42,0.00,,,0.00,563,Wunderground v.1.15,2013-03-27 20:13:00,
2013-03-27 16:19:00,47.4,26.6,30.03,NW,325,8.0,11.0,44,0.00,,,0.00,380,Wunderground v.1.15,2013-03-27 20:19:00,
2013-03-27 16:24:00,46.8,26.0,30.03,WNW,298,9.0,16.0,44,0.00,,,0.00,220,Wunderground v.1.15,2013-03-27 20:24:00,
2013-03-27 16:29:00,46.7,25.9,30.03,NW,319,9.0,16.0,44,0.00,,,0.00,258,Wunderground v.1.15,2013-03-27 20:29:00,
2013-03-27 16:35:00,45.9,26.3,30.03,WNW,287,9.0,11.0,46,0.00,,,0.00,313,Wunderground v.1.15,2013-03-27 20:35:00,
2013-03-27 16:41:00,46.0,27.4,30.03,NW,326,9.0,9.0,48,0.00,,,0.00,299,Wunderground v.1.15,2013-03-27 20:41:00,
2013-03-27 16:46:00,46.4,27.8,30.03,NNW,342,8.0,12.0,48,0.00,,,0.00,283,Wunderground v.1.15,2013-03-27 20:46:00,
2013-03-27 16:51:00,46.4,27.2,30.03,NW,325,8.0,15.0,47,0.00,,,0.00,90,Wunderground v.1.15,2013-03-27 20:51:00,
2013-03-27 16:57:00,45.7,25.5,30.03,NW,316,10.0,15.0,45,0.00,,,0.00,95,Wunderground v.1.15,2013-03-27 20:57:00,
2013-03-27 17:03:00,45.6,26.0,30.03,NW,321,9.0,9.0,46,0.00,,,0.00,83,Wunderground v.1.15,2013-03-27 21:03:00,
2013-03-27 17:09:00,45.7,26.1,30.03,North,351,7.0,9.0,46,0.00,,,0.00,67,Wunderground v.1.15,2013-03-27 21:09:00,
2013-03-27 17:15:00,45.8,26.2,30.04,West,277,6.0,7.0,46,0.00,,,0.00,102,Wunderground v.1.15,2013-03-27 21:15:00,
2013-03-27 17:21:00,46.5,26.3,30.04,West,271,5.0,9.0,45,0.00,,,0.00,120,Wunderground v.1.15,2013-03-27 21:21:00,
2013-03-27 17:26:00,46.2,26.5,30.04,WSW,254,7.0,11.0,46,0.00,,,0.00,100,Wunderground v.1.15,2013-03-27 21:26:00,
2013-03-27 17:31:00,46.1,25.9,30.04,NW,316,7.0,7.0,45,0.00,,,0.00,255,Wunderground v.1.15,2013-03-27 21:31:00,
2013-03-27 17:36:00,47.0,26.2,30.04,NW,320,6.0,10.0,44,0.00,,,0.00,185,Wunderground v.1.15,2013-03-27 21:36:00,
2013-03-27 17:42:00,46.5,27.8,30.04,NW,323,10.0,20.0,48,0.00,,,0.00,209,Wunderground v.1.15,2013-03-27 21:42:00,
2013-03-27 17:47:00,45.6,27.5,30.04,NNW,346,14.0,20.0,49,0.00,,,0.00,162,Wunderground v.1.15,2013-03-27 21:47:00,
2013-03-27 17:53:00,45.4,27.3,30.05,North,355,14.0,14.0,49,0.00,,,0.00,81,Wunderground v.1.15,2013-03-27 21:53:00,
2013-03-27 17:58:00,45.1,27.1,30.05,NNW,344,12.0,14.0,49,0.00,,,0.00,51,Wunderground v.1.15,2013-03-27 21:58:00,
2013-03-27 18:03:00,44.4,26.9,30.05,North,355,11.0,15.0,50,0.00,,,0.00,47,Wunderground v.1.15,2013-03-27 22:03:00,
2013-03-27 18:09:00,44.0,27.5,30.06,NNW,329,9.0,15.0,52,0.00,,,0.00,49,Wunderground v.1.15,2013-03-27 22:09:00,
2013-03-27 18:15:00,43.8,27.8,30.06,NNW,344,7.0,11.0,53,0.00,,,0.00,53,Wunderground v.1.15,2013-03-27 22:15:00,
2013-03-27 18:20:00,43.8,28.2,30.06,WNW,297,6.0,6.0,54,0.00,,,0.00,60,Wunderground v.1.15,2013-03-27 22:20:00,
2013-03-27 18:26:00,44.2,28.1,30.06,WNW,296,5.0,8.0,53,0.00,,,0.00,63,Wunderground v.1.15,2013-03-27 22:26:00,
2013-03-27 18:31:00,44.3,28.2,30.06,WNW,282,5.0,9.0,53,0.00,,,0.00,51,Wunderground v.1.15,2013-03-27 22:31:00,
2013-03-27 18:36:00,44.2,28.1,30.07,WNW,284,6.0,9.0,53,0.00,,,0.00,37,Wunderground v.1.15,2013-03-27 22:36:00,
2013-03-27 18:42:00,44.2,28.1,30.07,NW,320,6.0,7.0,53,0.00,,,0.00,26,Wunderground v.1.15,2013-03-27 22:42:00,
2013-03-27 18:48:00,44.2,28.1,30.07,NNW,340,6.0,7.0,53,0.00,,,0.00,21,Wunderground v.1.15,2013-03-27 22:48:00,
2013-03-27 18:53:00,44.2,27.7,30.07,WNW,287,7.0,11.0,52,0.00,,,0.00,18,Wunderground v.1.15,2013-03-27 22:53:00,
2013-03-27 18:59:00,44.0,28.4,30.08,NW,304,8.0,11.0,54,0.00,,,0.00,14,Wunderground v.1.15,2013-03-27 22:59:00,
2013-03-27 19:04:00,43.6,28.5,30.07,WNW,301,7.0,7.0,55,0.00,,,0.00,11,Wunderground v.1.15,2013-03-27 23:04:00,
2013-03-27 19:09:00,43.3,29.1,30.08,NW,310,6.0,9.0,57,0.00,,,0.00,9,Wunderground v.1.15,2013-03-27 23:09:00,
2013-03-27 19:14:00,42.9,28.7,30.08,WNW,299,6.0,8.0,57,0.00,,,0.00,7,Wunderground v.1.15,2013-03-27 23:14:00,
2013-03-27 19:20:00,42.6,28.8,30.08,WNW,296,5.0,6.0,58,0.00,,,0.00,5,Wunderground v.1.15,2013-03-27 23:20:00,
2013-03-27 19:26:00,42.4,28.7,30.09,WNW,283,4.0,6.0,58,0.00,,,0.00,0,Wunderground v.1.15,2013-03-27 23:26:00,
2013-03-27 19:32:00,42.2,28.5,30.09,WNW,294,4.0,4.0,58,0.00,,,0.00,0,Wunderground v.1.15,2013-03-27 23:32:00,
2013-03-27 19:38:00,42.2,28.9,30.09,WNW,296,4.0,7.0,59,0.00,,,0.00,0,Wunderground v.1.15,2013-03-27 23:38:00,
2013-03-27 19:44:00,42.1,28.4,30.09,West,281,5.0,6.0,58,0.00,,,0.00,0,Wunderground v.1.15,2013-03-27 23:44:00,
2013-03-27 19:50:00,42.2,27.6,30.09,NW,316,6.0,10.0,56,0.00,,,0.00,0,Wunderground v.1.15,2013-03-27 23:50:00,
2013-03-27 19:56:00,42.2,27.2,30.10,WNW,288,8.0,15.0,55,0.00,,,0.00,0,Wunderground v.1.15,2013-03-27 23:56:00,
2013-03-27 20:02:00,42.2,26.7,30.10,WNW,288,9.0,10.0,54,0.00,,,0.00,0,Wunderground v.1.15,2013-03-28 00:02:00,
2013-03-27 20:08:00,42.1,27.1,30.10,West,265,9.0,11.0,55,0.00,,,0.00,0,Wunderground v.1.15,2013-03-28 00:08:00,
2013-03-27 20:13:00,41.9,27.3,30.10,WNW,300,8.0,12.0,56,0.00,,,0.00,0,Wunderground v.1.15,2013-03-28 00:13:00,
2013-03-27 20:19:00,41.7,27.6,30.10,NW,325,8.0,12.0,57,0.00,,,0.00,0,Wunderground v.1.15,2013-03-28 00:19:00,
2013-03-27 20:24:00,41.6,27.5,30.10,NW,311,8.0,11.0,57,0.00,,,0.00,0,Wunderground v.1.15,2013-03-28 00:24:00,
2013-03-27 20:30:00,41.5,27.8,30.11,NNW,328,7.0,7.0,58,0.00,,,0.00,0,Wunderground v.1.15,2013-03-28 00:30:00,
2013-03-27 20:36:00,41.3,27.6,30.11,NW,325,6.0,7.0,58,0.00,,,0.00,0,Wunderground v.1.15,2013-03-28 00:36:00,
2013-03-27 20:42:00,41.1,27.9,30.11,NW,304,5.0,5.0,59,0.00,,,0.00,0,Wunderground v.1.15,2013-03-28 00:42:00,
2013-03-27 20:48:00,40.9,28.1,30.11,WNW,293,5.0,8.0,60,0.00,,,0.00,0,Wunderground v.1.15,2013-03-28 00:48:00,
2013-03-27 20:54:00,40.7,28.7,30.11,NW,309,5.0,8.0,62,0.00,,,0.00,0,Wunderground v.1.15,2013-03-28 00:54:00,
2013-03-27 21:01:00,40.5,28.9,30.11,WNW,292,5.0,5.0,63,0.00,,,0.00,0,Wunderground v.1.15,2013-03-28 01:01:00,
2013-03-27 21:07:00,40.2,29.0,30.12,WNW,300,5.0,7.0,64,0.00,,,0.00,0,Wunderground v.1.15,2013-03-28 01:07:00,
2013-03-27 21:13:00,40.1,28.9,30.12,WSW,252,4.0,5.0,64,0.00,,,0.00,0,Wunderground v.1.15,2013-03-28 01:13:00,
2013-03-27 21:19:00,40.0,28.8,30.12,West,266,4.0,5.0,64,0.00,,,0.00,0,Wunderground v.1.15,2013-03-28 01:19:00,
2013-03-27 21:25:00,39.8,29.0,30.12,WNW,288,5.0,6.0,65,0.00,,,0.00,0,Wunderground v.1.15,2013-03-28 01:25:00,
2013-03-27 21:31:00,39.7,28.9,30.13,WSW,257,4.0,5.0,65,0.00,,,0.00,0,Wunderground v.1.15,2013-03-28 01:31:00,
2013-03-27 21:37:00,39.6,29.2,30.13,WNW,282,4.0,6.0,66,0.00,,,0.00,0,Wunderground v.1.15,2013-03-28 01:37:00,
2013-03-27 21:43:00,39.4,29.0,30.13,WNW,297,4.0,5.0,66,0.00,,,0.00,0,Wunderground v.1.15,2013-03-28 01:43:00,
2013-03-27 21:49:00,39.2,29.2,30.13,WNW,292,3.0,5.0,67,0.00,,,0.00,0,Wunderground v.1.15,2013-03-28 01:49:00,
2013-03-27 21:55:00,39.0,29.0,30.13,NW,319,3.0,4.0,67,0.00,,,0.00,0,Wunderground v.1.15,2013-03-28 01:55:00,
2013-03-27 22:00:00,38.9,29.2,30.13,WNW,299,2.0,4.0,68,0.00,,,0.00,0,Wunderground v.1.15,2013-03-28 02:00:00,
2013-03-27 22:06:00,38.7,29.0,30.13,WNW,288,3.0,4.0,68,0.00,,,0.00,0,Wunderground v.1.15,2013-03-28 02:06:00,
2013-03-27 22:12:00,38.6,29.3,30.13,WNW,294,2.0,2.0,69,0.00,,,0.00,0,Wunderground v.1.15,2013-03-28 02:12:00,
2013-03-27 22:17:00,38.4,29.1,30.13,WNW,299,1.0,3.0,69,0.00,,,0.00,0,Wunderground v.1.15,2013-03-28 02:17:00,
2013-03-27 22:23:00,38.3,29.0,30.13,NW,304,2.0,2.0,69,0.00,,,0.00,0,Wunderground v.1.15,2013-03-28 02:23:00,
2013-03-27 22:29:00,38.2,28.9,30.13,WNW,294,2.0,5.0,69,0.00,,,0.00,0,Wunderground v.1.15,2013-03-28 02:29:00,
2013-03-27 22:35:00,38.0,29.1,30.13,WNW,297,3.0,5.0,70,0.00,,,0.00,0,Wunderground v.1.15,2013-03-28 02:35:00,
2013-03-27 22:41:00,37.9,29.0,30.13,WNW,299,3.0,3.0,70,0.00,,,0.00,0,Wunderground v.1.15,2013-03-28 02:41:00,
2013-03-27 22:47:00,37.9,29.0,30.13,WNW,298,2.0,4.0,70,0.00,,,0.00,0,Wunderground v.1.15,2013-03-28 02:47:00,
2013-03-27 22:53:00,37.9,29.0,30.13,WNW,294,3.0,4.0,70,0.00,,,0.00,0,Wunderground v.1.15,2013-03-28 02:53:00,
2013-03-27 22:58:00,37.8,28.9,30.13,WNW,296,3.0,4.0,70,0.00,,,0.00,0,Wunderground v.1.15,2013-03-28 02:58:00,
2013-03-27 23:04:00,37.8,28.9,30.13,West,281,2.0,6.0,70,0.00,,,0.00,0,Wunderground v.1.15,2013-03-28 03:04:00,
2013-03-27 23:09:00,37.6,29.0,30.13,WNW,284,3.0,6.0,71,0.00,,,0.00,0,Wunderground v.1.15,2013-03-28 03:09:00,
2013-03-27 23:14:00,37.5,28.9,30.13,West,281,3.0,4.0,71,0.00,,,0.00,0,Wunderground v.1.15,2013-03-28 03:14:00,
2013-03-27 23:20:00,37.5,28.9,30.13,WNW,292,3.0,4.0,71,0.00,,,0.00,0,Wunderground v.1.15,2013-03-28 03:20:00,
2013-03-27 23:26:00,37.4,28.9,30.13,NW,317,3.0,4.0,71,0.00,,,0.00,0,Wunderground v.1.15,2013-03-28 03:26:00,
2013-03-27 23:32:00,37.4,28.9,30.13,WNW,293,3.0,4.0,71,0.00,,,0.00,0,Wunderground v.1.15,2013-03-28 03:32:00,
2013-03-27 23:37:00,37.3,28.8,30.13,NW,310,3.0,6.0,71,0.00,,,0.00,0,Wunderground v.1.15,2013-03-28 03:37:00,
2013-03-27 23:43:00,37.2,29.0,30.13,WNW,301,2.0,3.0,72,0.00,,,0.00,0,Wunderground v.1.15,2013-03-28 03:43:00,
2013-03-27 23:49:00,37.1,28.9,30.13,WNW,290,2.0,3.0,72,0.00,,,0.00,0,Wunderground v.1.15,2013-03-28 03:49:00,
2013-03-27 23:54:00,37.1,28.9,30.13,WNW,290,1.0,2.0,72,0.00,,,0.00,0,Wunderground v.1.15,2013-03-28 03:54:00,